Location: Unspecified
(50.1700°N, 6.8600°E)
Time: 12:17:21
(UTC+00:00)

Lacrosse 4 Rocket - Pass Details

Date: 24 January 2019
Orbit: 544 x 615 km, 68.0° (Epoch: 17 October)

Event Time Altitude Azimuth Distance (km) Brightness Sun altitude
Exits shadow 04:00:28 13° 142° (SE) 1,706 4.1 -31.3°
Drops below altitude 10° 04:00:58 10° 143° (SE) 1,905 4.4 -31.2°
Sets 04:03:14 0° 144° (SE) 2,814 5.3 -30.8°
